Погода Конево

Погода Конево : погода сейчас, прогноз погоды и архив. Всё, что Вы хотите узнать о погоде Конево!

Поиск расширенной информации на нашем сайте:

Другие новости

Новости СМИ2

Главная страница сайта

Новости сайта

03.07.2017

Напоминаем, что на нашем специализированном сайте Метеоцентр.Азия вы можете получить высокодетализированные автоматические прогнозы погоды по пунктам России, СНГ и мира в авиационном формате (включающие направление и скорость ветра, видимость, явления погоды, количество и форму облачности, нижнюю и верхнюю границу облачности).


Погода Конево - сегодня

Время (UTC), дата Ветер
(°,м/с) 
Видим.   Явления Облачность Т
(°С)
Тd
(°С)
f(%) Тe
(°С)
Pmin
(гПа)
dP
(гПа)
Po
(мм)
O2
(г/м3)
Тmin Tmax R s Состояние
почвы
06 19.07.18 060 (СВ) 20000 м    ясно 
+20.2 +12.3 60 +24  1017.5  -0.4  754  281           
09 19.07.18 070 (В) 4{10}  20000 м    ясно 
+24.2 +10.2 41 +26  1016.9  -0.4  754  277           
12 19.07.18 070 (В) 4{10}  20000 м    ясно 
+26.2 +10.1 36 +27  1016.1  -0.7  754  275           
15 19.07.18 070 (В) 4{10}  20000 м    ясно 
+26.3 +10.3 37 +28  1015.6  -0.6  753  275    +26.7       
18 19.07.18 080 (В) 20000 м    ясно 
+22.5 +11.3 49 +25  1015.8  0.1  753  278           
21 19.07.18 070 (В) 20000 м    6/0 средняя, верхняя 
[Ac trans|Ci fib]
+18.1 +11 63 +21  1016.3  0.3  753  283           
00 20.07.18 350 (С) 20000 м    ясно 
+13.5 +12.1 91 +19  1016.7  0.2  754  287           
03 20.07.18 070 (В) 20000 м    1/0 верхняя 
[Ci fib]
+18.9 +13.4 70 +26  1016.4  0.1  753  281  +13.5        сухая 
06 20.07.18 090 (В) 20000 м    8/0 верхняя 
[Cs]
+22.3 +16.4 69 +33  1015.9  -0.3  753  277           
09 20.07.18 100 (В) 4{11}  20000 м    8/3 600 м верхняя 
[Cu med, cong|Cs]
+25.8 +15.9 54 +36  1015.1  -0.6  753  274           
15 20.07.18 120 (ЮВ) 2{10}  20000 м  {ливн. осадки}  8/8 300 м кучево-дожд. 
[Cb cap]
+25.4 +15.4 54 +35  1014.3  -0.4  752  274    +28.1  0.0     
18 20.07.18 тихо ()   20000 м  {ливн. осадки}  4/3 300 м кучево-дожд., средняя 
[Cb cap|Ac trans]
+20.6 +18.4 87 +36  1014.7  0.3  752  278           
21 20.07.18 110 (В) 20000 м    4/0 средняя 
[Ac As]
+19 +15.9 82 +31  1015.2  0.4  753  280           
00 21.07.18 110 (В) 20000 м    3/0 средняя 
[Ac trans]
+18.6 +15.5 82 +29  1015.2  753  281           
03 21.07.18 140 (ЮВ) 20000 м    1/0 средняя 
[Ac trans]
+20 +15.8 77 +30  1015.4  0.2  753  279  +17.3        сухая 
06 21.07.18 130 (ЮВ) 20000 м    8/1 1000 м средняя 
[Cu hum|Ac trans]
+23 +16.8 68 +35  1015.2  0.1  753  276           
09 21.07.18 140 (ЮВ) 4{10}  20000 м    5/5 1000 м 
[Cu med, cong]
+26.6 +13.6 45 +33  1014.4  -0.6  752  274           
12 21.07.18 150 (ЮВ) 4{11}  20000 м    8/8 1000 м верхняя 
[Cu med, cong|Ci fib]
+26.5 +12.2 41 +31  1013.9  -0.6  752  274           
18 21.07.18 140 (ЮВ) 20000 м    ясно 
+22.1 +13.6 59 +28  1013.7  0.5  752  277           
21 21.07.18 150 (ЮВ) 20000 м    8/8 600 м 
[Sc]
+20.4 +13.2 63 +26  1014.3  0.5  752  279           
00 22.07.18 150 (ЮВ) 20000 м    6/6 1000 м 
[Sc]
+17.5 +13.2 76 +24  1014.4  752  282           
06 22.07.18 180 (Ю) 20000 м    6/4 600 м верхняя 
[Cu hum|Ci fib]
+23.2 +15.9 64 +33  1014.9  0.1  752  276           
09 22.07.18 180 (Ю) 3{11}  20000 м    9/8 600 м кучево-дожд., верхняя 
[Cb cap|Ci fib]
+23.4 +14.4 57 +31  1015  0.1  753  276           
12 22.07.18 180 (Ю) 20000 м    9/6 600 м средняя, верхняя 
[Cu med, cong|Ac trans|Ci fib]
+25.4 +14.2 50 +33  1014.1  -0.7  752  274           
18 22.07.18 170 (Ю) 20000 м    3/0 средняя, верхняя 
[Ac trans|Ci fib]
+20.7 +14.6 68 +29  1014.9  0.7  752  279           
Время (UTC), дата Ветер
(°,м/с) 
Видим.   Явления Облачность Т
(°С)
Тd
(°С)
f(%) Тe
(°С)
Pmin
(гПа)
dP
(гПа)
Po
(мм)
O2
(г/м3)
Тmin Tmax R s Состояние
почвы

Для получения пояснительной информации подведите курсор к названию столбца.

ПОГОДА Конево - архив

Всё, что Вы хотите узнать о погоде Конево - удобно и подробно!

Выберите нужную дату (начиная с 1 января 2015* года) и нажмите кнопку "Найти".
Будут отображены архивные сводки погоды по пункту Конево, начиная с указанной даты.


Отображать данные в формате CSV (для использования в таблицах Excel)


Внимание! Наш архив погоды предназначен исключительно для личного некоммерческого использования в познавательных целях. Если Вам необходимы официальные справки о состоянии погоды (для производственных, юридических, коммерческих и т.п. целей), обращайтесь в органы Росгидромета.

*Примечание: данная дата относится к архиву по метеостанциям СССР (Россия, СНГ, Балтия).
Архив по метеостанциям Зарубежной Европы и Азии (кроме Китая) хранится 10 дней, по другим регионам земного шара (Китай, Африка, Америка, Австралия, Океания) - 1 день.

Конево - район местоположения метеостанции


Название, широта, долгота, высота метеостанции:
Конево 62.1°ш. 39.3°д. 100 м над ур. моря [Российская Федерация]

Дополнительная информация

В oтличие oт бoльшинства пoгoдных сайтoв мы публикуем пoдрoбную метеoинфoрмацию в детальнoм прoфессиoнальнoм фoрмате.

Характеристики температуры и влажнoсти вoздуха измеряются на высoте 2 м в тени вдали oт зданий и деревьев.
Скoрoсть ветра измеряется на высoте 10 м (на урoвне рoста челoвека скoрoсть ветра ниже в 1.5-2 раза). Если метеoстанция нахoдится в гoрoде или в лесу, тo скoрoсть ветра занижена на 2-4 м/с пo сравнению с oткрытым местoм. Скoрoсть ветра над акватoриями крупных рек и oзёр, а также на вершинах хoлмoв на 2-5 м/с выше, чем в oбычных услoвиях.
Атмoсфернoе давление в разных тoчках местнoсти мoжет значительнo oтличаться oт давления на метеoстанции, в зависимoсти oт услoвий рельефа (при пoдъёме на 10 м давление пoнижается примернo на 1 мм рт.ст.).